GPS BIII-3 (PRN 23)

Last updated on Sat Apr 13 2024 01:03:04 GMT+0100 (British Summer Time)

1 45854U 20041A 24102.75987154 -.00000052 00000+0 00000+0 0 9994 2 45854 56.0710 60.0357 0040944 193.7636 349.9076 2.00559387 28067
UTC large
Height (km)
Speed (km/s)
/
Latitude / Longitude
Inclination (degrees)
Orbital Period (minutes)
Azimuth
Elevation
Range (km)
Doppler Factor

Next 0 passes for location: London (51.5072 / 0.1276)

Sorry there are no passes over London.